DW2537 Weather Reports


Display with metric or nautical units.
time (UTC)temp
F
wind
direction
speed
MPH
gust
MPH
rain 1hr
in
rain 24hr
in
rain mn
in
humidity
%
barometer
mb
20260502212015 59 313 1.0 2.0 0.00 0.00 0.00 41 1011.4
20260502211530 59 65 1.0 2.0 0.00 0.00 0.00 38 1011.4
20260502211016 59 98 0.0 2.0 0.00 0.00 0.00 38 1011.4
20260502210516 59 341 1.0 4.0 0.00 0.00 0.00 39 1011.3
20260502210033 59 287 1.0 5.0 0.00 0.00 0.00 37 1011.4
20260502205516 59 280 1.0 8.0 0.00 0.00 0.00 39 1011.4
20260502205015 60 293 2.0 8.0 0.00 0.00 0.00 36 1011.3
20260502204535 60 336 2.0 5.0 0.00 0.00 0.00 40 1011.3
20260502204015 60 342 1.0 5.0 0.00 0.00 0.00 36 1011.2
20260502203518 60 195 1.0 5.0 0.00 0.00 0.00 41 1011.2
20260502203031 60 324 2.0 4.0 0.00 0.00 0.00 40 1011.2
20260502202518 59 204 1.0 3.0 0.00 0.00 0.00 39 1011.2
20260502202017 59 0 0.0 2.0 0.00 0.00 0.00 37 1011.2
20260502201538 59 292 0.0 2.0 0.00 0.00 0.00 39 1011.3
20260502201019 60 53 1.0 4.0 0.00 0.00 0.00 38 1011.2
20260502200515 60 309 1.0 5.0 0.00 0.00 0.00 42 1011.3
20260502200039 60 63 1.0 5.0 0.00 0.00 0.00 39 1011.3
20260502195517 61 34 1.0 6.0 0.00 0.00 0.00 36 1011.3
20260502195015 62 191 2.0 8.0 0.00 0.00 0.00 35 1011.4
20260502194538 62 352 2.0 8.0 0.00 0.00 0.00 40 1011.4
20260502194015 62 338 2.0 6.0 0.00 0.00 0.00 39 1011.5
20260502193518 61 273 1.0 4.0 0.00 0.00 0.00 43 1011.6
20260502193034 60 173 1.0 3.0 0.00 0.00 0.00 41 1011.9
20260502192517 60 177 1.0 3.0 0.00 0.00 0.00 40 1012.0
20260502192020 60 15 1.0 7.0 0.00 0.00 0.00 41 1012.1
20260502191537 61 41 1.0 7.0 0.00 0.00 0.00 38 1012.2
20260502191020 61 15 1.0 4.0 0.00 0.00 0.00 37 1012.2
20260502190517 61 56 1.0 4.0 0.00 0.00 0.00 40 1012.3
20260502190032 61 57 2.0 4.0 0.00 0.00 0.00 41 1012.4
20260502185517 61 233 1.0 5.0 0.00 0.00 0.00 41 1012.5
20260502185017 61 44 1.0 5.0 0.00 0.00 0.00 42 1012.6
20260502184536 62 58 2.0 5.0 0.00 0.00 0.00 35 1012.6
20260502184017 62 25 1.0 4.0 0.00 0.00 0.00 39 1012.6
20260502183515 61 144 1.0 3.0 0.00 0.00 0.00 40 1012.7
20260502183035 61 251 1.0 4.0 0.00 0.00 0.00 36 1012.8
20260502182518 60 93 1.0 4.0 0.00 0.00 0.00 37 1012.8
20260502182018 60 22 2.0 4.0 0.00 0.00 0.00 40 1012.9
20260502181532 60 63 0.0 4.0 0.00 0.00 0.00 42 1013.1
20260502181017 60 316 1.0 4.0 0.00 0.00 0.00 36 1013.1
20260502180518 61 200 1.0 4.0 0.00 0.00 0.00 36 1013.2
20260502164017 58 352 1.0 3.0 0.00 0.00 0.00 47 1013.6
20260502163518 58 37 1.0 4.0 0.00 0.00 0.00 44 1013.6
20260502163042 58 109 1.0 4.0 0.00 0.00 0.00 46 1013.6
20260502162515 58 141 0.0 3.0 0.00 0.00 0.00 43 1013.7
20260502162017 57 40 1.0 4.0 0.00 0.00 0.00 44 1013.8
20260502161539 57 325 1.0 4.0 0.00 0.00 0.00 42 1013.7
20260502161017 57 108 1.0 3.0 0.00 0.00 0.00 47 1013.8
20260502160515 57 111 1.0 4.0 0.00 0.00 0.00 40 1013.8
20260502152017 56 63 1.0 4.0 0.00 0.00 0.00 52 1014.2
20260502151540 56 38 1.0 4.0 0.00 0.00 0.00 51 1014.2
20260502151017 55 169 1.0 4.0 0.00 0.00 0.00 48 1014.2
20260502150517 55 44 0.0 7.0 0.00 0.00 0.00 50 1014.2
20260502130517 50 329 1.0 2.0 0.00 0.00 0.00 67 1013.8
20260502123517 50 61 1.0 4.0 0.00 0.00 0.00 63 1013.9
20260502123048 51 100 0.0 3.0 0.00 0.00 0.00 66 1013.8
20260502122517 51 181 1.0 3.0 0.00 0.00 0.00 65 1013.8
20260502122017 50 17 1.0 9.0 0.00 0.00 0.00 69 1013.9
20260502121532 50 0 1.0 9.0 0.00 0.00 0.00 66 1013.9
20260502121015 49 9 2.0 9.0 0.00 0.00 0.00 69 1013.9
20260502120515 49 137 0.0 4.0 0.00 0.00 0.00 66 1013.9
20260502115518 49 29 1.0 3.0 0.00 0.00 0.00 66 1013.8
20260502115018 49 91 0.0 2.0 0.00 0.00 0.00 70 1013.9
20260502114533 49 320 0.0 5.0 0.00 0.00 0.00 70 1013.9
20260502114018 49 163 0.0 7.0 0.00 0.00 0.00 70 1013.9
20260502113521 49 61 2.0 7.0 0.00 0.00 0.00 66 1014.0
20260502113038 49 31 1.0 7.0 0.00 0.00 0.00 70 1014.0
20260502112520 49 67 1.0 7.0 0.00 0.00 0.00 71 1014.0
20260502112019 49 236 1.0 4.0 0.00 0.00 0.00 66 1013.8
20260502111544 49 19 1.0 6.0 0.00 0.00 0.00 70 1013.8
20260502111017 49 12 1.0 6.0 0.00 0.00 0.00 67 1013.7
20260502110515 49 271 1.0 4.0 0.00 0.00 0.00 71 1013.8
20260502110032 49 352 1.0 5.0 0.00 0.00 0.00 66 1013.8
20260502105515 49 34 1.0 5.0 0.00 0.00 0.00 68 1013.6
20260502105015 48 205 0.0 4.0 0.00 0.00 0.00 73 1013.6
20260502104537 48 31 1.0 4.0 0.00 0.00 0.00 71 1013.6
20260502104015 48 252 0.0 3.0 0.00 0.00 0.00 72 1013.5
20260502103518 48 164 0.0 3.0 0.00 0.00 0.00 72 1013.5
20260502103032 48 253 0.0 2.0 0.00 0.00 0.00 72 1013.4
20260502102518 48 261 0.0 7.0 0.00 0.00 0.00 71 1013.4
20260502102018 48 0 0.0 7.0 0.00 0.00 0.00 68 1013.4
20260502101534 49 20 1.0 7.0 0.00 0.00 0.00 66 1013.3
20260502101017 49 180 0.0 3.0 0.00 0.00 0.00 70 1013.3
20260502100518 49 0 0.0 3.0 0.00 0.00 0.00 71 1013.2
20260502091532 50 136 0.0 2.0 0.00 0.00 0.00 68 1012.5
20260502091020 51 352 0.0 3.0 0.00 0.00 0.00 69 1012.5
20260502090517 51 39 1.0 3.0 0.00 0.00 0.00 67 1012.5
20260502071534 51 0 0.0 2.0 0.00 0.00 0.00 79 1012.4
20260502071019 51 0 0.0 2.0 0.00 0.00 0.00 80 1012.3
20260502070516 51 177 0.0 2.0 0.00 0.00 0.00 81 1012.1
20260502070041 51 0 0.0 2.0 0.00 0.00 0.00 82 1011.9
20260502065519 51 0 0.0 2.0 0.00 0.00 0.00 82 1011.8
20260502065021 51 233 0.0 2.0 0.00 0.00 0.00 82 1011.9
20260502064534 51 0 0.0 2.0 0.00 0.00 0.00 81 1012.0
20260502064021 51 0 0.0 2.0 0.00 0.00 0.00 81 1011.8
20260502063518 51 0 0.0 2.0 0.00 0.00 0.00 81 1012.0
20260502063039 51 0 0.0 2.0 0.00 0.00 0.00 81 1012.2
20260502062518 51 0 0.0 0.0 0.00 0.00 0.00 81 1012.3
20260502062019 51 0 0.0 2.0 0.00 0.00 0.00 81 1012.4
20260502061534 51 0 0.0 2.0 0.00 0.00 0.00 81 1012.6
20260502061016 51 0 0.0 0.0 0.00 0.00 0.00 82 1012.6
20260502060515 52 0 0.0 0.0 0.00 0.00 0.00 81 1012.7
20260502060031 52 0 0.0 0.0 0.00 0.00 0.00 80 1012.7
20260502055515 52 0 0.0 0.0 0.00 0.00 0.00 81 1012.6
20260502055017 52 0 0.0 2.0 0.00 0.00 0.00 81 1012.5
20260502054532 52 0 0.0 2.0 0.00 0.00 0.00 81 1012.6
20260502054015 52 227 0.0 2.0 0.00 0.00 0.00 80 1012.7
20260502053518 52 0 0.0 2.0 0.00 0.00 0.00 80 1012.6
20260502053051 52 219 0.0 2.0 0.00 0.00 0.00 80 1012.7
20260502052516 52 0 0.0 2.0 0.00 0.00 0.00 79 1012.7
20260502052016 52 0 0.0 2.0 0.00 0.00 0.00 80 1012.7
20260502051536 52 0 0.0 2.0 0.00 0.00 0.00 80 1012.7
20260502051017 52 0 0.0 2.0 0.00 0.00 0.00 80 1012.7
20260502050517 52 0 0.0 2.0 0.00 0.00 0.00 80 1012.8
20260502050032 52 0 0.0 2.0 0.00 0.00 0.00 77 1012.8
20260502045518 52 0 0.0 2.0 0.00 0.00 0.00 79 1012.9
20260502045019 52 219 0.0 2.0 0.00 0.00 0.00 79 1013.1
20260502044531 53 0 0.0 2.0 0.00 0.00 0.00 79 1013.0
20260502044018 53 219 0.0 2.0 0.00 0.00 0.00 79 1013.0
20260502043520 53 0 0.0 2.0 0.00 0.00 0.00 78 1012.9
20260502043036 53 0 0.0 2.0 0.00 0.00 0.00 75 1012.8
20260502042515 53 0 0.0 2.0 0.00 0.00 0.00 78 1012.8
20260502042018 53 219 0.0 2.0 0.00 0.00 0.00 78 1012.8
20260502041539 53 165 0.0 2.0 0.00 0.00 0.00 78 1012.7
20260502041022 53 254 0.0 2.0 0.00 0.00 0.00 78 1012.6
20260502040518 54 0 0.0 2.0 0.00 0.00 0.00 77 1012.6
20260502040036 54 270 0.0 2.0 0.00 0.00 0.00 72 1012.4
20260502035518 54 243 0.0 2.0 0.00 0.00 0.00 70 1012.2
20260502035018 54 228 0.0 2.0 0.00 0.00 0.00 71 1012.2
20260502034533 54 0 0.0 2.0 0.00 0.00 0.00 71 1012.4
20260502034018 54 333 1.0 2.0 0.00 0.00 0.00 68 1012.4
20260502033518 55 5 1.0 2.0 0.00 0.00 0.00 68 1012.1
20260502033037 55 0 0.0 4.0 0.00 0.00 0.00 71 1011.9
20260502032518 55 352 0.0 4.0 0.00 0.00 0.00 69 1011.9
20260502032017 55 0 0.0 3.0 0.00 0.00 0.00 68 1011.8
20260502031533 55 0 0.0 2.0 0.00 0.00 0.00 72 1011.9
20260502031016 55 0 0.0 4.0 0.00 0.00 0.00 72 1011.8
20260502030515 55 0 1.0 4.0 0.00 0.00 0.00 68 1011.6
20260502030030 55 0 0.0 2.0 0.00 0.00 0.00 71 1011.7
20260502025518 55 111 0.0 4.0 0.00 0.00 0.00 71 1011.5
20260502025018 55 80 0.0 4.0 0.00 0.00 0.00 71 1011.6
20260502024534 55 175 1.0 4.0 0.00 0.00 0.00 70 1011.7
20260502024020 55 0 0.0 3.0 0.00 0.00 0.00 71 1011.7
20260502023518 56 138 0.0 3.0 0.00 0.00 0.00 70 1011.8
20260502023036 56 159 0.0 2.0 0.00 0.00 0.00 70 1011.8
20260502022517 56 0 0.0 3.0 0.00 0.00 0.00 67 1011.8
20260502022022 56 0 0.0 3.0 0.00 0.00 0.00 69 1011.8
20260502021534 56 160 0.0 4.0 0.00 0.00 0.00 69 1011.8
20260502021018 56 0 1.0 4.0 0.00 0.00 0.00 68 1011.9
20260502020518 56 0 0.0 4.0 0.00 0.00 0.00 68 1011.8
20260502020038 56 98 1.0 4.0 0.00 0.00 0.00 68 1011.8
20260502015518 56 250 0.0 2.0 0.00 0.00 0.00 67 1011.8
20260502015020 56 96 0.0 3.0 0.00 0.00 0.00 67 1011.7
20260502014533 56 135 0.0 3.0 0.00 0.00 0.00 66 1011.7
20260502014015 56 113 1.0 3.0 0.00 0.00 0.00 66 1011.5
20260502013518 56 0 0.0 4.0 0.00 0.00 0.00 66 1011.5
20260502013038 56 171 0.0 4.0 0.00 0.00 0.00 65 1011.5
20260502012518 56 26 0.0 2.0 0.00 0.00 0.00 65 1011.5
20260502012018 56 331 0.0 2.0 0.00 0.00 0.00 65 1011.5
20260502011534 56 48 0.0 3.0 0.00 0.00 0.00 65 1011.5
20260502011018 56 146 1.0 3.0 0.00 0.00 0.00 65 1011.3
20260502010518 56 158 1.0 4.0 0.00 0.00 0.00 64 1011.2
20260502010033 56 126 1.0 4.0 0.00 0.00 0.00 63 1011.1
20260502005518 56 0 0.0 4.0 0.00 0.00 0.00 62 1011.0
20260502005022 57 12 0.0 3.0 0.00 0.00 0.00 59 1011.1
20260502004541 57 37 1.0 5.0 0.00 0.00 0.00 60 1011.1
20260502004018 57 96 1.0 5.0 0.00 0.00 0.00 60 1011.0
20260502003518 57 181 1.0 4.0 0.00 0.00 0.00 58 1010.9
20260502003031 57 67 1.0 4.0 0.00 0.00 0.00 58 1010.7
20260502002518 57 71 1.0 5.0 0.00 0.00 0.00 57 1010.6
20260502002021 57 74 1.0 5.0 0.00 0.00 0.00 56 1010.7
20260502001532 57 186 0.0 2.0 0.00 0.00 0.00 55 1010.8
20260502001021 58 85 0.0 2.0 0.00 0.00 0.00 54 1010.8
20260502000518 58 0 0.0 2.0 0.00 0.00 0.00 54 1010.8
20260502000038 58 207 1.0 2.0 0.00 0.00 0.00 53 1010.6
20260501235517 58 96 0.0 3.0 0.00 0.00 0.00 52 1010.5
20260501235018 58 11 0.0 3.0 0.00 0.00 0.00 52 1010.3
20260501234539 59 94 1.0 3.0 0.00 0.00 0.00 49 1010.4
20260501234018 59 153 0.0 2.0 0.00 0.00 0.00 52 1010.3
20260501233518 59 17 0.0 2.0 0.00 0.00 0.00 52 1010.3
20260501233032 59 175 1.0 3.0 0.00 0.00 0.00 52 1010.5
20260501232515 60 140 1.0 3.0 0.00 0.00 0.00 50 1010.4
20260501232017 60 80 0.0 3.0 0.00 0.00 0.00 50 1010.3
20260501231554 60 109 1.0 3.0 0.00 0.00 0.00 47 1010.5
20260501231015 61 106 0.0 6.0 0.00 0.00 0.00 47 1010.2
20260501230518 61 86 1.0 6.0 0.00 0.00 0.00 49 1010.4
20260501230032 62 59 0.0 11.0 0.00 0.00 0.00 48 1010.4
20260501225518 62 90 2.0 11.0 0.00 0.00 0.00 45 1010.2
20260501225021 63 85 0.0 3.0 0.00 0.00 0.00 48 1010.3
20260501224547 63 23 1.0 6.0 0.00 0.00 0.00 48 1010.3
20260501224018 63 200 1.0 6.0 0.00 0.00 0.00 43 1010.3
20260501223518 64 64 1.0 2.0 0.00 0.00 0.00 36 1010.3
20260501223038 64 174 0.0 4.0 0.00 0.00 0.00 36 1010.4
20260501222518 64 201 1.0 4.0 0.00 0.00 0.00 36 1010.3
20260501222018 64 198 1.0 4.0 0.00 0.00 0.00 36 1010.4
20260501221536 64 84 1.0 4.0 0.00 0.00 0.00 36 1010.5
20260501221017 65 11 1.0 4.0 0.00 0.00 0.00 36 1010.6
20260501220517 65 222 1.0 7.0 0.00 0.00 0.00 36 1010.4
20260501220033 65 200 1.0 7.0 0.00 0.00 0.00 39 1010.5
20260501215518 65 267 1.0 6.0 0.00 0.00 0.00 40 1010.5
20260501215018 65 195 0.0 5.0 0.00 0.00 0.00 38 1010.6
20260501214530 65 194 1.0 8.0 0.00 0.00 0.00 38 1010.5
20260501214019 65 5 1.0 8.0 0.00 0.00 0.00 35 1010.6
20260501213518 66 0 1.0 6.0 0.00 0.00 0.00 39 1010.6
20260501213038 66 69 1.0 8.0 0.00 0.00 0.00 37 1010.6
20260501212518 66 30 1.0 8.0 0.00 0.00 0.00 40 1010.6